Home > Time Zones > World Clock > Weather > U.S.A. > Knox > Past weeks

Flag for U.S.A. Weather past 2 weeks in Knox, Indiana, U.S.A.

Now
70 °F

Clear.


Feels Like: 65 °F
Forecast: 66 / 86 °F
Wind: No wind

Location: Porter County Municipal Airport

Current Time: Sep 5, 2015 at 12:56:08 AM

Latest Report: Sep 4, 2015 at 11:56 PM


Visibility: 9 mi

Pressure: 30.06 "Hg

Humidity: 93%

Dew point: 68 °F

Location of KnoxLocation

Historic Weather in Knox — Graph

°F

Knox temperature yesterday

Maximum temperature yesterday: 82 °F (at 1:56 PM)
Minimum temperature yesterday: 66 °F (at 5:59 AM)
Average temperature yesterday: 74 °F

Past Weeks' High & Low Weather Summary

 TemperatureHumidityPressure
High89 °F (Sep 2, 1:56 PM)100% (Aug 31, 3:56 AM)30.23 "Hg (Aug 31, 3:56 AM)
Low53 °F (Aug 28, 4:56 AM)42% (Aug 22, 12:56 PM)29.85 "Hg (Aug 23, 12:56 PM)
Average70 °F76%30.04 "Hg
* Reported Aug 20 11:56 PM — Sep 4 11:56 PM, Knox, Weather by CustomWeather, © 2015

Note: Actual official high and low records may vary slightly from our data, if they occured in-between our weather recording intervals... More about our weather records

Advertising

Knox weather history for previous 24 hours

 ConditionsComfort  
Time TempWeatherWind HumidityBarometerVisibility
11:56 PM
Fri, Sep 4
70 °FClear.No wind93%30.06 "Hg9 mi
10:56 PM70 °FClear.No wind93%30.07 "Hg10 mi
9:56 PM72 °FClear.6 mph91%30.05 "Hg10 mi
8:56 PM72 °FClear.3 mph91%30.03 "Hg10 mi
7:56 PM74 °FPassing clouds.3 mph88%30.02 "Hg10 mi
6:56 PM78 °FMostly cloudy.3 mph79%30.02 "Hg10 mi
5:56 PM80 °FPassing clouds.5 mph79%30.01 "Hg10 mi
4:56 PM82 °FScattered clouds.7 mph74%30.00 "Hg10 mi
3:56 PM82 °FSunny.6 mph74%30.01 "Hg10 mi
2:56 PM82 °FPassing clouds.5 mph72%30.00 "Hg10 mi
1:56 PM82 °FBroken clouds.5 mph72%30.01 "Hg10 mi
12:56 PM80 °FPartly sunny.6 mph71%30.02 "Hg10 mi
11:56 AM81 °FMostly cloudy.5 mph72%30.02 "Hg10 mi
10:56 AM81 °FBroken clouds.No wind69%30.02 "Hg10 mi
9:56 AM77 °FScattered clouds.No wind77%30.02 "Hg10 mi
8:56 AM74 °FSunny.5 mph82%30.02 "Hg10 mi
7:56 AM70 °FFog.3 mph93%30.01 "Hg5 mi
6:56 AM67 °FFog.No wind93%30.00 "Hg2 mi
5:59 AM66 °FFog.No wind93%30.00 "Hg1 mi
4:56 AM67 °FFog.No wind93%29.96 "Hg6 mi
3:56 AM68 °FClear.No wind93%29.96 "Hg9 mi
2:56 AM69 °FClear.No wind90%29.95 "Hg10 mi
1:56 AM69 °FClear.3 mph93%29.95 "Hg10 mi
12:56 AM71 °FPassing clouds.3 mph87%29.94 "Hg10 mi
Weather by CustomWeather, © 2015

See weather overviewHow to use our weather pages